N1QWW Weather Reports


time (UTC)temp
C
wind
direction
speed
KPH
gust
KPH
rain 1hr
cm
rain 24hr
cm
rain mn
cm
humidity
%
barometer
mb
20260507050035 12 260 0.0 4.8 0.00 0.18 0.00 94 1006.4
20260507044519 12 262 0.0 6.4 0.00 0.18 0.00 94 1006.6
20260507043019 12 296 0.0 8.0 0.00 0.18 0.00 94 1006.5
20260507041525 12 229 1.6 9.7 0.00 0.18 0.00 94 1006.6
20260507040016 12 255 0.0 11.3 0.00 0.18 0.00 94 1006.6
20260507034514 12 203 1.6 14.5 0.00 0.18 0.18 94 1006.7
20260507033013 12 260 0.0 11.3 0.00 0.18 0.18 94 1006.7
20260507031511 12 309 0.0 9.7 0.00 0.18 0.18 94 1006.9
20260507030021 12 266 0.0 6.4 0.00 0.18 0.18 94 1006.8
20260507024514 12 222 0.0 14.5 0.00 0.18 0.18 94 1006.6
20260507023009 12 128 1.6 6.4 0.00 0.18 0.18 94 1006.8
20260507021507 12 9 0.0 9.7 0.00 0.18 0.18 94 1007.0
20260507020004 12 240 4.8 19.3 0.00 0.18 0.18 94 1007.2
20260507014506 12 249 0.0 14.5 0.00 0.18 0.18 94 1007.5
20260507013010 12 249 1.6 19.3 0.00 0.18 0.18 94 1007.6
20260507011504 12 224 4.8 16.1 0.00 0.18 0.18 94 1007.7
20260507010002 12 19 4.8 16.1 0.00 0.18 0.18 94 1007.7
20260507004600 12 229 3.2 12.9 0.00 0.18 0.18 94 1007.6
20260507003100 12 260 4.8 16.1 0.00 0.18 0.18 93 1007.6
20260507001608 13 82 1.6 16.1 0.03 0.18 0.18 93 1007.6
20260507000059 13 267 4.8 19.3 0.03 0.18 0.18 93 1007.6
20260506234559 13 246 1.6 16.1 0.10 0.18 0.18 94 1007.6
20260506233058 13 283 1.6 19.3 0.10 0.18 0.18 93 1007.6
20260506231609 13 138 1.6 11.3 0.10 0.15 0.15 93 1007.3
20260506230110 13 63 1.6 12.9 0.13 0.15 0.15 93 1007.4
20260506224553 13 281 3.2 12.9 0.05 0.08 0.08 93 1007.4
20260506223051 13 37 0.0 8.0 0.03 0.05 0.05 92 1007.7
20260506221608 13 269 1.6 12.9 0.03 0.05 0.05 91 1007.9
20260506220105 13 110 3.2 22.5 0.03 0.03 0.03 90 1008.2
20260506214550 14 270 3.2 22.5 0.03 0.03 0.03 90 1008.1
20260506213103 14 258 3.2 12.9 0.03 0.03 0.03 89 1008.1
20260506211545 14 96 1.6 16.1 0.03 0.03 0.03 88 1008.3
20260506210053 15 221 1.6 11.3 0.00 0.00 0.00 88 1008.3
20260506204543 15 299 3.2 14.5 0.00 0.00 0.00 87 1008.5
20260506203042 15 56 1.6 11.3 0.00 0.00 0.00 87 1008.5
20260506201546 15 298 3.2 11.3 0.00 0.00 0.00 86 1008.7
20260506200040 15 201 3.2 16.1 0.00 0.00 0.00 84 1008.9
20260506194540 15 325 4.8 17.7 0.00 0.00 0.00 81 1009.0
20260506193038 16 245 4.8 20.9 0.00 0.00 0.00 80 1009.2
20260506191537 16 52 4.8 19.3 0.00 0.00 0.00 80 1009.2
20260506190038 16 253 0.0 11.3 0.00 0.00 0.00 79 1009.3
20260506184540 17 260 1.6 17.7 0.00 0.00 0.00 78 1009.2
20260506183035 17 297 4.8 22.5 0.00 0.00 0.00 78 1009.5
20260506181532 16 316 3.2 19.3 0.00 0.00 0.00 78 1009.8
20260506180033 17 255 8.0 25.7 0.00 0.00 0.00 78 1010.2
20260506174533 17 238 4.8 33.8 0.00 0.00 0.00 77 1010.4
20260506173028 18 168 3.2 16.1 0.00 0.00 0.00 75 1010.5
20260506171538 18 105 3.2 20.9 0.00 0.00 0.00 76 1010.4
20260506170025 17 332 3.2 14.5 0.00 0.00 0.00 78 1010.6
20260506164523 16 177 4.8 17.7 0.00 0.00 0.00 80 1011.0
20260506163023 16 248 3.2 29.0 0.00 0.00 0.00 80 1011.3
20260506161519 17 307 8.0 27.4 0.00 0.00 0.00 77 1011.4
20260506160018 17 181 9.7 24.1 0.00 0.00 0.00 75 1011.5
20260506154519 17 103 4.8 16.1 0.00 0.00 0.00 76 1011.6
20260506153016 17 167 8.0 24.1 0.00 0.00 0.00 76 1011.7
20260506151521 17 283 3.2 12.9 0.00 0.00 0.00 76 1011.9
20260506150013 17 60 6.4 17.7 0.00 0.00 0.00 77 1011.7
20260506144510 17 201 6.4 30.6 0.00 0.00 0.00 79 1011.8
20260506143010 16 229 6.4 20.9 0.00 0.00 0.00 79 1011.8
20260506141509 17 122 8.0 20.9 0.00 0.00 0.00 78 1011.4
20260506140016 17 334 9.7 25.7 0.00 0.00 0.00 78 1011.7
20260506134506 17 278 8.0 30.6 0.00 0.00 0.00 78 1011.9
20260506133003 17 252 1.6 22.5 0.00 0.00 0.00 79 1012.1
20260506131503 16 263 6.4 17.7 0.00 0.00 0.00 80 1012.0
20260506124558 16 295 3.2 24.1 0.00 0.00 0.00 81 1011.8
20260506123056 16 324 0.0 29.0 0.00 0.00 0.00 82 1012.1
20260506121557 15 259 6.4 24.1 0.00 0.00 0.00 83 1011.9
20260506120053 15 212 1.6 22.5 0.00 0.00 0.00 85 1012.1
20260506114552 14 68 3.2 24.1 0.00 0.00 0.00 87 1012.3
20260506113044 13 79 3.2 20.9 0.00 0.00 0.00 88 1012.4
20260506111543 13 145 3.2 22.5 0.00 0.00 0.00 88 1012.2
20260506110043 13 269 3.2 14.5 0.00 0.00 0.00 89 1012.1
20260506104543 13 269 0.0 20.9 0.00 0.00 0.00 90 1012.3
20260506103039 13 163 0.0 19.3 0.00 0.00 0.00 90 1012.3
20260506101534 -17 0.0 0.0 0.00 0.00 0.00 1012.2
20260506100030 -17 0.0 0.0 0.00 0.00 0.00 1012.1
20260506094526 -17 0.0 0.0 0.00 0.00 0.00 1012.0
20260506093024 -17 0.0 0.0 0.00 0.00 0.00 1012.1
20260506091524 -17 0.0 0.0 0.00 0.00 0.00 1012.2
20260506090023 -17 0.0 0.0 0.00 0.00 0.00 1012.3
20260506084523 -17 0.0 0.0 0.00 0.00 0.00 1012.3
20260506083018 -17 0.0 0.0 0.00 0.00 0.00 1012.4
20260506081514 -17 0.0 0.0 0.00 0.00 0.00 1012.4
20260506073002 12 297 1.6 19.3 0.00 0.00 0.00 90 1012.3
20260506071601 12 15 3.2 24.1 0.00 0.00 0.00 90 1012.4
20260506061551 12 80 1.6 14.5 0.00 0.00 0.00 89 1012.2